| time (UTC) | temp F | wind direction | speed knots | gust knots | rain 1hr in | rain 24hr in | rain mn in | humidity % | barometer mb |
| 20260903225235 | 63 | 0 | 0.9 | 3.5 | 0.00 | 0.20 | 0.16 | 65 | 1010.1 |
| 20260903224733 | 63 | 0 | 0.9 | 3.5 | 0.00 | 0.20 | 0.16 | 67 | 1010.1 |
| 20260903224233 | 63 | 0 | 0.9 | 3.5 | 0.00 | 0.20 | 0.16 | 67 | 1010.0 |
| 20260903223730 | 63 | 0 | 0.9 | 2.6 | 0.00 | 0.21 | 0.16 | 66 | 1010.0 |
| 20260903223233 | 63 | 0 | 0.9 | 2.6 | 0.00 | 0.22 | 0.16 | 67 | 1010.0 |
| 20260903222730 | 63 | 0 | 0.0 | 1.7 | 0.00 | 0.23 | 0.16 | 69 | 1010.0 |
| 20260903221730 | 63 | 0 | 0.0 | 0.0 | 0.00 | 0.28 | 0.16 | 67 | 1010.1 |
| 20260903221240 | 63 | 0 | 0.0 | 0.0 | 0.00 | 0.30 | 0.16 | 69 | 1010.1 |
| 20260903220731 | 62 | 244 | 0.0 | 0.0 | 0.00 | 0.33 | 0.16 | 70 | 1010.2 |
| 20260903215230 | 62 | 242 | 0.0 | 0.0 | 0.00 | 0.41 | 0.16 | 73 | 1010.2 |
| 20260903214731 | 61 | 242 | 0.0 | 0.0 | 0.00 | 0.44 | 0.16 | 73 | 1010.2 |
| 20260903214230 | 61 | 242 | 0.0 | 0.0 | 0.00 | 0.46 | 0.16 | 74 | 1010.1 |
| 20260903213232 | 61 | 245 | 0.0 | 1.7 | 0.00 | 0.55 | 0.16 | 73 | 1010.1 |
| 20260903212731 | 61 | 0 | 0.0 | 1.7 | 0.00 | 0.60 | 0.16 | 72 | 1010.1 |
| 20260903212231 | 62 | 0 | 0.0 | 0.0 | 0.00 | 0.63 | 0.16 | 70 | 1010.1 |
| 20260903211734 | 62 | 0 | 0.0 | 0.0 | 0.00 | 0.66 | 0.16 | 70 | 1010.0 |
| 20260903211233 | 62 | 0 | 0.0 | 0.9 | 0.00 | 0.70 | 0.16 | 71 | 1010.1 |
| 20260903210236 | 62 | 0 | 1.7 | 4.3 | 0.00 | 0.75 | 0.16 | 70 | 1010.2 |
| 20260903203735 | 60 | 172 | 0.9 | 2.6 | 0.00 | 0.87 | 0.16 | 76 | 1010.2 |
| 20260903203228 | 60 | 186 | 0.9 | 0.0 | 0.00 | 0.87 | 0.16 | 76 | 1010.2 |
| 20260903202934 | 60 | 217 | 1.7 | 4.3 | 0.00 | 0.87 | 0.16 | 76 | 1010.2 |
| 20260903202437 | 60 | 0 | 1.7 | 4.3 | 0.00 | 0.87 | 0.16 | 78 | 1010.2 |
| 20260903201935 | 59 | 0 | 1.7 | 4.3 | 0.00 | 0.87 | 0.16 | 78 | 1010.3 |
| 20260903201435 | 59 | 0 | 1.7 | 4.3 | 0.00 | 0.87 | 0.16 | 80 | 1010.3 |
| 20260903200936 | 59 | 0 | 1.7 | 5.2 | 0.00 | 0.87 | 0.16 | 80 | 1010.4 |
| 20260903200436 | 59 | 0 | 1.7 | 5.2 | 0.00 | 0.87 | 0.16 | 81 | 1010.5 |
| 20260903195432 | 58 | 0 | 1.7 | 4.3 | 0.00 | 0.87 | 0.16 | 78 | 1010.6 |
| 20260903194933 | 58 | 0 | 0.9 | 4.3 | 0.00 | 0.87 | 0.16 | 80 | 1010.7 |
| 20260903194432 | 58 | 0 | 0.9 | 2.6 | 0.00 | 0.87 | 0.16 | 81 | 1010.5 |
| 20260903193931 | 58 | 0 | 1.7 | 3.5 | 0.00 | 0.87 | 0.16 | 81 | 1010.5 |
| 20260903193434 | 58 | 0 | 3.5 | 7.0 | 0.04 | 0.87 | 0.16 | 80 | 1010.6 |
| 20260903192934 | 58 | 0 | 3.5 | 7.0 | 0.07 | 0.87 | 0.16 | 79 | 1010.6 |
| 20260903191934 | 57 | 0 | 2.6 | 7.0 | 0.10 | 0.87 | 0.16 | 80 | 1010.7 |
| 20260903190431 | 56 | 0 | 2.6 | 6.1 | 0.11 | 0.87 | 0.16 | 82 | 1010.8 |
| 20260903185932 | 55 | 0 | 3.5 | 6.1 | 0.12 | 0.87 | 0.16 | 82 | 1010.8 |
| 20260903185432 | 55 | 121 | 2.6 | 5.2 | 0.12 | 0.87 | 0.16 | 81 | 1010.9 |
| 20260903184931 | 54 | 0 | 1.7 | 5.2 | 0.12 | 0.87 | 0.16 | 84 | 1010.9 |
| 20260903184432 | 54 | 0 | 1.7 | 5.2 | 0.12 | 0.87 | 0.16 | 83 | 1011.2 |
| 20260903183930 | 54 | 0 | 1.7 | 4.3 | 0.12 | 0.87 | 0.15 | 83 | 1010.8 |
| 20260903183434 | 55 | 0 | 1.7 | 4.3 | 0.08 | 0.83 | 0.12 | 83 | 1010.9 |
| 20260903182931 | 55 | 0 | 1.7 | 4.3 | 0.05 | 0.80 | 0.06 | 83 | 1010.8 |
| 20260903182431 | 55 | 0 | 1.7 | 4.3 | 0.02 | 0.77 | 0.06 | 82 | 1010.6 |
| 20260903180931 | 56 | 0 | 0.9 | 3.5 | 0.02 | 0.77 | 0.06 | 82 | 1010.7 |
| 20260903180433 | 56 | 0 | 0.9 | 3.5 | 0.01 | 0.76 | 0.05 | 82 | 1010.8 |
| 20260903175435 | 56 | 0 | 0.9 | 2.6 | 0.00 | 0.75 | 0.04 | 81 | 1010.8 |
| 20260903174931 | 56 | 0 | 0.9 | 3.5 | 0.00 | 0.75 | 0.04 | 81 | 1010.7 |
| 20260903173930 | 56 | 0 | 1.7 | 7.0 | 0.00 | 0.75 | 0.04 | 82 | 1010.8 |
| 20260903173432 | 56 | 0 | 1.7 | 7.0 | 0.00 | 0.75 | 0.04 | 82 | 1010.9 |
| 20260903172931 | 56 | 0 | 1.7 | 5.2 | 0.00 | 0.75 | 0.04 | 82 | 1010.9 |
| 20260903172434 | 56 | 0 | 1.7 | 5.2 | 0.00 | 0.75 | 0.04 | 82 | 1010.8 |
| 20260903171930 | 56 | 0 | 0.9 | 4.3 | 0.00 | 0.75 | 0.04 | 82 | 1010.8 |
| 20260903171431 | 55 | 0 | 0.9 | 3.5 | 0.00 | 0.75 | 0.04 | 83 | 1010.6 |
| 20260903170430 | 55 | 0 | 0.9 | 4.3 | 0.00 | 0.75 | 0.04 | 83 | 1010.7 |
| 20260903165931 | 55 | 0 | 0.9 | 3.5 | 0.00 | 0.75 | 0.04 | 83 | 1010.6 |
| 20260903165432 | 55 | 0 | 1.7 | 3.5 | 0.00 | 0.75 | 0.04 | 83 | 1010.6 |
| 20260903164932 | 55 | 0 | 1.7 | 3.5 | 0.00 | 0.75 | 0.04 | 83 | 1010.6 |
| 20260903163931 | 55 | 206 | 0.9 | 3.5 | 0.00 | 0.75 | 0.04 | 83 | 1010.4 |
| 20260903163434 | 54 | 209 | 0.9 | 2.6 | 0.00 | 0.75 | 0.04 | 83 | 1010.3 |
| 20260903162933 | 54 | 211 | 0.0 | 2.6 | 0.00 | 0.75 | 0.04 | 83 | 1010.5 |
| 20260903162435 | 54 | 217 | 0.9 | 3.5 | 0.01 | 0.75 | 0.04 | 84 | 1010.6 |
| 20260903161934 | 54 | 218 | 0.9 | 3.5 | 0.01 | 0.75 | 0.04 | 83 | 1010.4 |
| 20260903160934 | 54 | 240 | 1.7 | 4.3 | 0.01 | 0.75 | 0.04 | 83 | 1010.2 |
| 20260903155932 | 55 | 237 | 1.7 | 5.2 | 0.01 | 0.75 | 0.04 | 83 | 1010.3 |
| 20260903155434 | 54 | 210 | 1.7 | 4.3 | 0.01 | 0.75 | 0.04 | 83 | 1010.3 |
| 20260903154930 | 54 | 216 | 1.7 | 6.1 | 0.01 | 0.75 | 0.04 | 84 | 1010.2 |
| 20260903154431 | 54 | 225 | 1.7 | 6.1 | 0.01 | 0.75 | 0.04 | 84 | 1010.2 |
| 20260903153434 | 54 | 211 | 1.7 | 6.1 | 0.01 | 0.75 | 0.04 | 84 | 1010.0 |
| 20260903152931 | 54 | 237 | 1.7 | 4.3 | 0.01 | 0.75 | 0.04 | 84 | 1010.0 |
| 20260903152430 | 54 | 232 | 2.6 | 4.3 | 0.00 | 0.74 | 0.03 | 84 | 1010.0 |
| 20260903151931 | 54 | 207 | 1.7 | 4.3 | 0.00 | 0.74 | 0.03 | 84 | 1010.0 |
| 20260903151430 | 53 | 206 | 1.7 | 4.3 | 0.00 | 0.74 | 0.03 | 85 | 1009.8 |
| 20260903150933 | 53 | 208 | 1.7 | 4.3 | 0.00 | 0.74 | 0.03 | 85 | 1009.8 |
| 20260903150432 | 53 | 211 | 1.7 | 4.3 | 0.00 | 0.74 | 0.03 | 85 | 1009.7 |
| 20260903145930 | 53 | 214 | 1.7 | 4.3 | 0.00 | 0.74 | 0.03 | 85 | 1009.7 |
| 20260903144933 | 52 | 196 | 1.7 | 4.3 | 0.00 | 0.74 | 0.03 | 85 | 1009.6 |
| 20260903144430 | 52 | 220 | 0.9 | 3.5 | 0.01 | 0.74 | 0.03 | 85 | 1009.6 |
| 20260903143430 | 52 | 215 | 1.7 | 3.5 | 0.01 | 0.74 | 0.03 | 85 | 1009.7 |
| 20260903142931 | 52 | 183 | 0.9 | 3.5 | 0.01 | 0.74 | 0.03 | 85 | 1009.7 |
| 20260903142431 | 52 | 175 | 0.9 | 3.5 | 0.02 | 0.74 | 0.03 | 85 | 1009.6 |
| 20260903141930 | 52 | 126 | 1.7 | 3.5 | 0.02 | 0.74 | 0.03 | 85 | 1009.6 |
| 20260903140931 | 51 | 97 | 0.9 | 3.5 | 0.02 | 0.74 | 0.03 | 85 | 1009.6 |
| 20260903140431 | 51 | 14 | 0.0 | 0.0 | 0.02 | 0.74 | 0.03 | 85 | 1009.6 |
| 20260903135931 | 51 | 11 | 0.0 | 0.0 | 0.02 | 0.74 | 0.03 | 85 | 1009.7 |
| 20260903135430 | 51 | 11 | 0.0 | 0.0 | 0.02 | 0.74 | 0.03 | 85 | 1009.8 |
| 20260903134932 | 51 | 11 | 0.0 | 0.0 | 0.02 | 0.74 | 0.03 | 85 | 1009.6 |
| 20260903134433 | 51 | 11 | 0.0 | 0.0 | 0.01 | 0.73 | 0.02 | 85 | 1009.6 |
| 20260903133933 | 51 | 11 | 0.0 | 0.0 | 0.01 | 0.73 | 0.02 | 85 | 1009.5 |
| 20260903133426 | 51 | 11 | 0.0 | 0.0 | 0.01 | 0.73 | 0.02 | 85 | 1009.5 |
| 20260903132926 | 51 | 30 | 0.0 | 0.0 | 0.02 | 0.73 | 0.02 | 85 | 1009.3 |
| 20260903132426 | 51 | 30 | 0.0 | 0.0 | 0.01 | 0.72 | 0.01 | 85 | 1009.4 |
| 20260903131926 | 51 | 30 | 0.0 | 0.0 | 0.01 | 0.72 | 0.01 | 85 | 1009.2 |
| 20260903131426 | 51 | 30 | 0.0 | 0.0 | 0.01 | 0.72 | 0.01 | 85 | 1009.1 |
| 20260903130927 | 51 | 30 | 0.0 | 0.0 | 0.01 | 0.72 | 0.01 | 85 | 1009.1 |
| 20260903130427 | 51 | 30 | 0.0 | 0.0 | 0.01 | 0.72 | 0.01 | 85 | 1009.1 |
| 20260903125928 | 51 | 30 | 0.0 | 0.0 | 0.01 | 0.72 | 0.01 | 85 | 1009.0 |
| 20260903125427 | 51 | 30 | 0.0 | 0.0 | 0.01 | 0.72 | 0.01 | 85 | 1008.9 |
| 20260903124927 | 51 | 30 | 0.0 | 0.0 | 0.01 | 0.72 | 0.01 | 85 | 1008.9 |
| 20260903123924 | 51 | 329 | 0.9 | 2.6 | 0.01 | 0.72 | 0.01 | 85 | 1008.7 |
| 20260903123424 | 51 | 286 | 0.9 | 2.6 | 0.01 | 0.72 | 0.01 | 85 | 1008.7 |
| 20260903122922 | 51 | 255 | 0.9 | 2.6 | 0.00 | 0.71 | 0.00 | 85 | 1008.7 |
| 20260903121922 | 51 | 252 | 0.0 | 1.7 | 0.00 | 0.71 | 0.00 | 85 | 1008.6 |
| 20260903120919 | 50 | 242 | 0.9 | 1.7 | 0.00 | 0.71 | 0.00 | 85 | 1008.6 |
| 20260903115916 | 51 | 242 | 0.9 | 1.7 | 0.00 | 0.71 | 0.00 | 85 | 1008.7 |
| 20260903115417 | 51 | 242 | 0.9 | 1.7 | 0.00 | 0.71 | 0.00 | 85 | 1008.6 |
| 20260903114914 | 51 | 242 | 0.9 | 1.7 | 0.00 | 0.71 | 0.00 | 85 | 1008.7 |
| 20260903114414 | 51 | 242 | 0.0 | 1.7 | 0.00 | 0.71 | 0.00 | 85 | 1008.7 |
| 20260903113913 | 51 | 242 | 0.0 | 1.7 | 0.00 | 0.71 | 0.00 | 85 | 1008.6 |
| 20260903113411 | 51 | 242 | 0.0 | 1.7 | 0.00 | 0.71 | 0.00 | 85 | 1008.7 |
| 20260903112912 | 50 | 242 | 0.9 | 1.7 | 0.00 | 0.71 | 0.00 | 85 | 1008.9 |
| 20260903112412 | 50 | 242 | 0.0 | 1.7 | 0.00 | 0.71 | 0.00 | 85 | 1008.7 |
| 20260903111411 | 50 | 243 | 0.0 | 1.7 | 0.00 | 0.71 | 0.00 | 85 | 1008.7 |
| 20260903110908 | 51 | 243 | 0.9 | 1.7 | 0.00 | 0.71 | 0.00 | 85 | 1008.7 |
| 20260903105407 | 51 | 243 | 0.0 | 1.7 | 0.00 | 0.71 | 0.00 | 85 | 1008.5 |
| 20260903104906 | 51 | 243 | 0.0 | 1.7 | 0.00 | 0.71 | 0.00 | 85 | 1008.6 |
| 20260903104408 | 51 | 243 | 0.9 | 3.5 | 0.00 | 0.71 | 0.00 | 85 | 1008.9 |
| 20260903103409 | 51 | 319 | 0.0 | 1.7 | 0.00 | 0.71 | 0.00 | 85 | 1009.1 |
| 20260903102904 | 51 | 319 | 0.0 | 0.9 | 0.00 | 0.71 | 0.00 | 85 | 1009.1 |
| 20260903102410 | 51 | 319 | 0.0 | 0.9 | 0.00 | 0.71 | 0.00 | 85 | 1009.0 |
| 20260903101906 | 51 | 319 | 0.0 | 0.9 | 0.00 | 0.71 | 0.00 | 85 | 1008.7 |
| 20260903101403 | 51 | 319 | 0.0 | 0.9 | 0.00 | 0.71 | 0.00 | 85 | 1008.7 |
| 20260903100903 | 51 | 319 | 0.0 | 2.6 | 0.00 | 0.71 | 0.00 | 85 | 1008.7 |
| 20260903100403 | 51 | 319 | 0.9 | 2.6 | 0.00 | 0.71 | 0.00 | 85 | 1008.6 |
| 20260903095903 | 51 | 319 | 0.9 | 3.5 | 0.00 | 0.71 | 0.00 | 84 | 1008.6 |
| 20260903095405 | 51 | 319 | 0.9 | 3.5 | 0.00 | 0.71 | 0.00 | 84 | 1008.6 |
| 20260903094902 | 52 | 319 | 0.9 | 2.6 | 0.00 | 0.71 | 0.00 | 84 | 1008.6 |
| 20260903094404 | 52 | 306 | 0.9 | 3.5 | 0.00 | 0.71 | 0.00 | 84 | 1008.6 |
| 20260903093902 | 52 | 306 | 1.7 | 3.5 | 0.00 | 0.71 | 0.00 | 84 | 1008.3 |
| 20260903093402 | 52 | 280 | 1.7 | 3.5 | 0.00 | 0.71 | 0.00 | 84 | 1008.1 |
| 20260903092403 | 52 | 209 | 2.6 | 7.0 | 0.00 | 0.71 | 0.00 | 83 | 1008.2 |
| 20260903091905 | 52 | 214 | 3.5 | 7.0 | 0.00 | 0.71 | 0.00 | 83 | 1008.2 |
| 20260903091407 | 51 | 234 | 4.3 | 7.0 | 0.00 | 0.71 | 0.00 | 84 | 1008.2 |
| 20260903090408 | 52 | 236 | 0.9 | 3.5 | 0.00 | 0.71 | 0.00 | 86 | 1008.3 |
| 20260903085903 | 51 | 204 | 0.0 | 0.9 | 0.00 | 0.71 | 0.00 | 85 | 1008.5 |
| 20260903085405 | 50 | 286 | 0.0 | 0.0 | 0.00 | 0.71 | 0.00 | 85 | 1008.6 |
| 20260903084904 | 50 | 333 | 0.0 | 0.0 | 0.00 | 0.71 | 0.00 | 85 | 1008.9 |
| 20260903083903 | 50 | 333 | 0.0 | 0.0 | 0.00 | 0.71 | 0.00 | 85 | 1009.0 |
| 20260903082903 | 50 | 333 | 0.0 | 0.0 | 0.00 | 0.71 | 0.00 | 85 | 1008.9 |
| 20260903082404 | 51 | 333 | 0.0 | 0.0 | 0.00 | 0.71 | 0.00 | 85 | 1008.7 |
| 20260903081904 | 50 | 334 | 0.0 | 0.0 | 0.00 | 0.71 | 0.00 | 85 | 1008.7 |
| 20260903081403 | 50 | 334 | 0.0 | 0.0 | 0.00 | 0.71 | 0.00 | 85 | 1008.7 |
| 20260903080902 | 50 | 334 | 0.0 | 0.0 | 0.00 | 0.71 | 0.00 | 85 | 1009.0 |
| 20260903080404 | 50 | 334 | 0.0 | 0.0 | 0.00 | 0.71 | 0.00 | 85 | 1008.9 |
| 20260903074902 | 50 | 336 | 0.0 | 0.0 | 0.00 | 0.71 | 0.00 | 85 | 1008.5 |
| 20260903074406 | 50 | 334 | 0.0 | 0.0 | 0.00 | 0.71 | 0.00 | 85 | 1008.4 |
| 20260903073905 | 50 | 336 | 0.0 | 0.0 | 0.00 | 0.71 | 0.00 | 85 | 1008.1 |
| 20260903073404 | 51 | 351 | 0.0 | 0.0 | 0.00 | 0.71 | 0.00 | 85 | 1008.1 |
| 20260903072403 | 50 | 351 | 0.0 | 0.0 | 0.00 | 0.71 | 0.00 | 85 | 1008.4 |
| 20260903071903 | 50 | 355 | 0.0 | 0.0 | 0.00 | 0.71 | 0.00 | 85 | 1008.4 |
| 20260903071404 | 50 | 355 | 0.0 | 0.0 | 0.00 | 0.71 | 0.00 | 85 | 1008.4 |
| 20260903070903 | 50 | 355 | 0.0 | 0.0 | 0.00 | 0.71 | 0.00 | 85 | 1008.3 |
| 20260903070404 | 50 | 198 | 0.0 | 0.0 | 0.00 | 0.71 | 0.00 | 85 | 1008.2 |
| 20260903065403 | 50 | 198 | 0.0 | 0.9 | 0.00 | 0.71 | 0.00 | 85 | 1008.0 |
| 20260903064906 | 51 | 198 | 0.0 | 0.9 | 0.00 | 0.71 | 0.00 | 85 | 1007.9 |
| 20260903064406 | 51 | 198 | 0.0 | 0.9 | 0.00 | 0.71 | 0.00 | 85 | 1007.9 |
| 20260903063904 | 50 | 198 | 0.0 | 0.9 | 0.00 | 0.71 | 0.00 | 85 | 1008.0 |
| 20260903063404 | 50 | 198 | 0.0 | 1.7 | 0.00 | 0.71 | 0.00 | 85 | 1008.3 |
| 20260903062906 | 50 | 198 | 0.0 | 1.7 | 0.00 | 0.71 | 0.00 | 85 | 1008.3 |
| 20260903062359 | 50 | 248 | 0.0 | 0.0 | 0.00 | 0.71 | 0.00 | 85 | 1008.4 |
| 20260903061850 | 50 | 218 | 0.0 | 0.0 | 0.00 | 0.71 | 0.00 | 85 | 1008.3 |
| 20260903060838 | 50 | 217 | 0.0 | 0.0 | 0.00 | 0.71 | 0.00 | 85 | 1008.2 |
| 20260903060340 | 50 | 217 | 0.0 | 0.0 | 0.00 | 0.71 | 0.00 | 85 | 1008.2 |
| 20260903055336 | 50 | 217 | 0.0 | 0.0 | 0.00 | 0.71 | 0.71 | 84 | 1008.4 |
| 20260903054835 | 50 | 217 | 0.0 | 0.0 | 0.00 | 0.71 | 0.71 | 84 | 1008.5 |
| 20260903053833 | 50 | 217 | 0.0 | 0.0 | 0.00 | 0.71 | 0.71 | 84 | 1008.4 |
| 20260903053333 | 50 | 217 | 0.0 | 0.0 | 0.00 | 0.71 | 0.71 | 84 | 1008.5 |
| 20260903052831 | 50 | 217 | 0.0 | 0.0 | 0.00 | 0.71 | 0.71 | 84 | 1008.6 |
| 20260903052331 | 50 | 217 | 0.0 | 0.0 | 0.00 | 0.71 | 0.71 | 84 | 1008.6 |
| 20260903051830 | 50 | 217 | 0.0 | 0.0 | 0.00 | 0.71 | 0.71 | 84 | 1008.6 |
| 20260903051331 | 50 | 217 | 0.0 | 0.0 | 0.00 | 0.71 | 0.71 | 83 | 1008.7 |
| 20260903050831 | 50 | 217 | 0.0 | 0.0 | 0.00 | 0.71 | 0.71 | 83 | 1008.7 |
| 20260903050331 | 51 | 217 | 0.0 | 0.0 | 0.00 | 0.71 | 0.71 | 83 | 1008.6 |
| 20260903045834 | 50 | 217 | 0.0 | 0.0 | 0.00 | 0.71 | 0.71 | 82 | 1008.9 |
| 20260903045335 | 50 | 217 | 0.0 | 0.0 | 0.00 | 0.71 | 0.71 | 81 | 1008.9 |
| 20260903044834 | 50 | 217 | 0.0 | 0.0 | 0.00 | 0.71 | 0.71 | 80 | 1009.0 |
| 20260903043833 | 51 | 217 | 0.0 | 0.0 | 0.00 | 0.71 | 0.71 | 77 | 1009.0 |
| 20260903043337 | 51 | 217 | 0.0 | 0.0 | 0.00 | 0.71 | 0.71 | 77 | 1009.1 |
| 20260903042831 | 51 | 217 | 0.0 | 0.0 | 0.00 | 0.71 | 0.71 | 76 | 1009.1 |
| 20260903042331 | 51 | 217 | 0.0 | 0.0 | 0.00 | 0.71 | 0.71 | 75 | 1009.1 |
| 20260903041832 | 51 | 217 | 0.0 | 0.0 | 0.00 | 0.71 | 0.71 | 75 | 1009.1 |
| 20260903041330 | 51 | 217 | 0.0 | 0.0 | 0.00 | 0.71 | 0.71 | 75 | 1009.3 |
| 20260903040831 | 51 | 217 | 0.0 | 0.0 | 0.00 | 0.71 | 0.71 | 74 | 1009.3 |
| 20260903040331 | 52 | 217 | 0.0 | 0.9 | 0.00 | 0.71 | 0.71 | 74 | 1009.4 |
| 20260903035831 | 52 | 217 | 0.9 | 2.6 | 0.00 | 0.71 | 0.71 | 73 | 1009.4 |
| 20260903035333 | 52 | 217 | 0.9 | 2.6 | 0.00 | 0.71 | 0.71 | 73 | 1009.5 |
| 20260903034832 | 53 | 214 | 0.9 | 2.6 | 0.00 | 0.71 | 0.71 | 72 | 1009.4 |
| 20260903033334 | 54 | 211 | 1.7 | 3.5 | 0.00 | 0.71 | 0.71 | 69 | 1009.4 |
| 20260903032333 | 54 | 231 | 1.7 | 3.5 | 0.00 | 0.71 | 0.71 | 68 | 1009.4 |
| 20260903031331 | 54 | 241 | 1.7 | 6.1 | 0.00 | 0.71 | 0.71 | 69 | 1009.3 |
| 20260903030830 | 54 | 208 | 0.9 | 3.5 | 0.00 | 0.71 | 0.71 | 70 | 1009.4 |
| 20260903030331 | 54 | 208 | 0.9 | 2.6 | 0.00 | 0.71 | 0.71 | 70 | 1009.4 |
| 20260903025832 | 54 | 205 | 0.9 | 3.5 | 0.00 | 0.71 | 0.71 | 70 | 1009.3 |
| 20260903024831 | 54 | 206 | 0.9 | 3.5 | 0.00 | 0.71 | 0.71 | 71 | 1009.3 |
| 20260903023331 | 54 | 205 | 1.7 | 3.5 | 0.00 | 0.71 | 0.71 | 70 | 1009.3 |
| 20260903022833 | 55 | 202 | 1.7 | 4.3 | 0.00 | 0.71 | 0.71 | 69 | 1009.2 |
| 20260903021831 | 55 | 214 | 1.7 | 4.3 | 0.00 | 0.71 | 0.71 | 69 | 1009.3 |
| 20260903021336 | 55 | 211 | 1.7 | 4.3 | 0.00 | 0.71 | 0.71 | 69 | 1009.4 |
| 20260903020833 | 55 | 212 | 1.7 | 6.1 | 0.00 | 0.71 | 0.71 | 69 | 1009.4 |
| 20260903015834 | 55 | 246 | 2.6 | 6.1 | 0.00 | 0.71 | 0.71 | 70 | 1009.3 |
| 20260903015333 | 54 | 229 | 2.6 | 4.3 | 0.00 | 0.71 | 0.71 | 70 | 1009.3 |
| 20260903014834 | 55 | 244 | 2.6 | 5.2 | 0.00 | 0.71 | 0.71 | 70 | 1009.3 |
| 20260903014334 | 55 | 221 | 2.6 | 6.1 | 0.00 | 0.71 | 0.71 | 69 | 1009.3 |
| 20260903013835 | 55 | 232 | 2.6 | 6.1 | 0.00 | 0.71 | 0.71 | 69 | 1009.4 |
| 20260903013334 | 55 | 229 | 2.6 | 5.2 | 0.00 | 0.71 | 0.71 | 70 | 1009.3 |
| 20260903012832 | 55 | 242 | 1.7 | 4.3 | 0.00 | 0.71 | 0.71 | 70 | 1009.3 |
| 20260903011832 | 54 | 210 | 1.7 | 3.5 | 0.00 | 0.71 | 0.71 | 71 | 1009.5 |